                ,  0.865,  0.962,  1.058,  1.155,  1.251,  1.348,  1.445,  1.541,  1.638,  1.734,  1.831,  1.928,  2.024,  2.121,  2.217,  2.314,  2.410,  2.507,  2.604,  2.700,  2.797,  2.893,  2.990,  3.087,  3.183,  3.280,  3.376,  3.473,  3.570,  3.666,  3.763,  3.859,  3.956,  4.053,  4.149,  4.246,  4.342,  4.439,  4.536,  4.632,  4.729,  4.825,  4.922,  5.018,  5.115,  5.212,  5.308,  5.405,  5.501,  5.598,  5.695,  5.791
2001/12/28 00:00,  999.0,  999.0,  999.0,  999.0,  999.0,    0.0,   -0.0,   -0.4,    0.5,  999.0,    2.8,    1.4,   -0.4,    1.2,    0.8,  999.0,    2.7,  999.0,  999.0,  999.0,   -0.4,  999.0,  999.0,  999.0,  999.0,  999.0,    2.1,  999.0,  999.0,   -2.4,    0.8,  999.0,  999.0,  999.0,  999.0,  999.0,  999.0,    0.3,    0.7,   -0.5,  999.0,  999.0,  999.0,  999.0,  999.0,  999.0,  999.0,  999.0,  999.0,  999.0,  999.0,  999.0
2001/12/28 00:10,  999.0,  999.0,  999.0,  999.0,  999.0,  999.0,    0.0,   -0.1,   -0.2,   -0.1,   -0.1,   -0.1,    0.0,    0.1,   -0.2,  999.0,   -0.9,  999.0,    0.2,  999.0,  999.0,  999.0,  999.0,  999.0,  999.0,  999.0,  999.0,  999.0,  999.0,  999.0,  999.0,  999.0,  999.0,  999.0,  999.0,  999.0,  999.0,  999.0,  999.0,  999.0,  999.0,  999.0,  999.0,  999.0,  999.0,  999.0,  999.0,  999.0,  999.0,  999.0,  999.0,  999.0
2001/12/28 00:20,  999.0,  999.0,  999.0,  999.0,  999.0,   -0.1,    0.0,   -0.1,   -0.3,    0.5,  999.0,  999.0,  999.0,  999.0,   -0.5,   -1.0,  999.0,  999.0,  999.0,  999.0,  999.0,  999.0,  999.0,  999.0,  999.0,  999.0,  999.0,  999.0,  999.0,  999.0,  999.0,  999.0,  999.0,  999.0,  999.0,  999.0,  999.0,  999.0,  999.0,  999.0,  999.0,  999.0,  999.0,  999.0,  999.0,  999.0,  999.0,  999.0,  999.0,  999.0,  999.0,  999.0
2001/12/28 00:30,  999.0,  999.0,  999.0,  999.0,  999.0,    0.1,    0.1,   -0.0,  999.0,   -0.0,  999.0,    0.8,  999.0,  999.0,  999.0,   -0.3,  999.0,  999.0,  999.0,  999.0,  999.0,  999.0,  999.0,  999.0,  999.0,  999.0,  999.0,  999.0,  999.0,  999.0,  999.0,  999.0,  999.0,  999.0,  999.0,  999.0,  999.0,  999.0,  999.0,  999.0,  999.0,  999.0,  999.0,  999.0,  999.0,  999.0,  999.0,  999.0,  999.0,  999.0,  999.0,  999.0
2001/12/28 00:40,  999.0,  999.0,  999.0,  999.0,  999.0,   -0.1,    0.1,    0.1,    1.3,    1.3,    2.4,    3.3,    1.5,    1.2,  999.0,  999.0,    0.8,  999.0,  999.0,  999.0,  999.0,  999.0,  999.0,  999.0,  999.0,  999.0,  999.0,  999.0,  999.0,  999.0,  999.0,  999.0,  999.0,  999.0,  999.0,  999.0,  999.0,  999.0,  999.0,  999.0,  999.0,  999.0,  999.0,  999.0,  999.0,  999.0,  999.0,  999.0,  999.0,  999.0,  999.0,  999.0
2001/12/28 00:50,  999.0,  999.0,  999.0,  999.0,  999.0,    0.0,    0.0,   -0.1,    1.8,    2.2,    3.8,    3.2,    1.3,   -0.1,    0.0,    0.4,    0.5,  999.0,  999.0,  999.0,  999.0,  999.0,  999.0,  999.0,  999.0,  999.0,  999.0,  999.0,  999.0,  999.0,  999.0,  999.0,  999.0,  999.0,  999.0,  999.0,  999.0,  999.0,  999.0,  999.0,  999.0,  999.0,  999.0,  999.0,  999.0,  999.0,  999.0,  999.0,  999.0,  999.0,  999.0,  999.0
2001/12/28 01:00,  999.0,  999.0,  999.0,  999.0,  999.0,   -0.2,    0.1,   -0.0,    3.1,    4.1,    4.6,    4.8,    3.8,    0.6,    0.4,    0.9,    0.4,    0.2,    0.0,  999.0,  999.0,  999.0,  999.0,  999.0,  999.0,  999.0,  999.0,  999.0,  999.0,  999.0,  999.0,  999.0,  999.0,  999.0,  999.0,  999.0,  999.0,  999.0,  999.0,  999.0,  999.0,  999.0,  999.0,  999.0,  999.0,  999.0,  999.0,  999.0,  999.0,  999.0,  999.0,  999.0
2001/12/28 01:10,  999.0,  999.0,  999.0,  999.0,  999.0,   -0.3,    0.0,   -0.0,    2.6,    4.6,    4.5,    4.1,    2.9,    1.0,  999.0,  999.0,  999.0,    2.1,  999.0,  999.0,  999.0,  999.0,  999.0,  999.0,  999.0,  999.0,  999.0,  999.0,  999.0,  999.0,  999.0,  999.0,  999.0,  999.0,  999.0,  999.0,  999.0,  999.0,  999.0,  999.0,  999.0,  999.0,  999.0,  999.0,  999.0,  999.0,  999.0,  999.0,  999.0,  999.0,  999.0,  999.0
2001/12/28 01:20,  999.0,  999.0,  999.0,  999.0,  999.0,   -0.3,    0.0,   -0.1,    1.9,    3.8,    5.3,    3.8,    3.6,    1.9,    2.2,    2.5,  999.0,  999.0,  999.0,  999.0,  999.0,  999.0,  999.0,  999.0,  999.0,  999.0,  999.0,  999.0,  999.0,  999.0,  999.0,  999.0,  999.0,  999.0,  999.0,  999.0,  999.0,  999.0,  999.0,  999.0,  999.0,  999.0,  999.0,  999.0,  999.0,  999.0,  999.0,  999.0,  999.0,  999.0,  999.0,  999.0
2001/12/28 01:30,  999.0,  999.0,  999.0,  999.0,  999.0,   -0.3,    0.1,   -0.1,    0.8,    2.6,  999.0,    5.0,    4.0,    3.3,    3.0,    1.8,  999.0,  999.0,  999.0,  999.0,  999.0,  999.0,  999.0,  999.0,  999.0,  999.0,  999.0,  999.0,  999.0,  999.0,  999.0,  999.0,  999.0,  999.0,  999.0,  999.0,  999.0,  999.0,  999.0,  999.0,  999.0,  999.0,  999.0,  999.0,  999.0,  999.0,  999.0,  999.0,  999.0,  999.0,  999.0,  999.0
2001/12/28 01:40,  999.0,  999.0,  999.0,  999.0,  999.0,   -1.2,   -0.0,    0.0,    2.2,    2.6,    4.1,    4.3,    3.7,    1.5,    0.3,    1.7,  999.0,  999.0,  999.0,  999.0,  999.0,  999.0,  999.0,  999.0,  999.0,  999.0,  999.0,  999.0,  999.0,    1.8,  999.0,  999.0,  999.0,  999.0,  999.0,  999.0,  999.0,  999.0,  999.0,  999.0,  999.0,  999.0,  999.0,  999.0,  999.0,  999.0,  999.0,  999.0,  999.0,  999.0,  999.0,  999.0
2001/12/28 01:50,  999.0,  999.0,  999.0,  999.0,  999.0,   -0.2,    1.0,    0.8,    4.6,    5.0,    4.6,    3.5,    3.0,    2.1,    2.3,  999.0,  999.0,    1.9,  999.0,  999.0,  999.0,  999.0,  999.0,  999.0,  999.0,  999.0,  999.0,  999.0,  999.0,  999.0,  999.0,  999.0,  999.0,  999.0,  999.0,  999.0,  999.0,  999.0,  999.0,  999.0,  999.0,  999.0,  999.0,  999.0,  999.0,   -3.8,   -4.3,   -4.8,   -5.2,   -5.8,   -6.1,   -6.4
2001/12/28 02:00,  999.0,  999.0,  999.0,  999.0,  999.0,   -0.3,    0.5,   -0.2,    1.4,    1.6,    2.6,    4.3,    1.8,    2.9,  999.0,  999.0,  999.0,  999.0,  999.0,  999.0,  999.0,  999.0,  999.0,  999.0,  999.0,  999.0,  999.0,  999.0,  999.0,  999.0,  999.0,  999.0,  999.0,  999.0,  999.0,  999.0,  999.0,  999.0,  999.0,  999.0,   -0.7,   -1.0,   -1.5,   -1.2,   -1.4,   -2.2,   -3.2,   -4.0,   -4.2,   -4.6,   -5.1,   -5.9
2001/12/28 02:10,  999.0,  999.0,  999.0,  999.0,  999.0,    0.2,   -4.0,   -5.1,   -7.2,   -4.4,   -5.6,  999.0,  -18.9,  -12.5,  999.0,  999.0,   -5.3,   -2.2,   -2.4,   -0.4,    0.1,    0.3,    0.4,    1.6,    1.8,    0.1,    2.3,    1.6,    1.6,    0.7,   -0.2,   -0.7,   -1.5,   -1.5,   -1.4,   -1.5,   -0.9,   -2.2,   -0.8,   -1.1,   -1.0,   -1.2,   -1.5,   -1.8,   -2.4,   -3.2,   -3.8,   -4.3,   -4.9,   -5.8,   -6.7,   -6.8
2001/12/28 02:20,  999.0,  999.0,  999.0,  999.0,  999.0,   -2.0,    2.2,    5.0,    1.5,    2.3,    2.3,   -0.6,   -2.3,   -0.0,    2.2,    2.1,    1.6,    1.3,    0.4,   -0.7,   -1.9,   -2.2,   -1.6,   -1.4,   -1.4,   -2.0,   -2.3,   -2.7,   -4.0,   -4.6,   -4.0,   -3.9,   -4.1,   -4.1,   -4.1,   -4.0,   -2.1,  999.0,  999.0,  999.0,   -0.6,   -1.2,   -1.5,   -1.5,   -2.1,   -3.0,   -3.5,   -4.2,   -5.3,   -6.5,   -7.0,   -6.8
2001/12/28 02:30,  999.0,  999.0,  999.0,  999.0,  999.0,  999.0,    3.2,    3.8,    3.4,    3.4,    2.2,    1.2,    0.7,    1.3,    2.1,    2.2,    2.0,    1.8,    1.1,    0.5,   -0.1,   -0.1,   -0.1,    0.6,    1.2,    1.5,    1.4,    1.2,    0.7,    0.4,    0.2,    0.0,    0.1,    0.6,    0.9,    1.0,    1.5,    3.0,  999.0,    0.5,   -0.4,   -1.0,   -1.4,   -1.5,   -1.6,   -2.2,   -3.2,   -3.8,   -4.6,   -5.4,   -5.9,   -6.4
2001/12/28 02:40,  999.0,  999.0,  999.0,  999.0,  999.0,  999.0,    1.6,    2.7,    3.0,    2.8,    2.3,    1.3,    0.6,    1.2,    1.5,    1.3,    1.6,    1.3,    0.4,   -0.2,   -0.8,   -1.3,   -1.8,   -1.7,   -1.0,   -1.0,   -1.2,   -2.0,   -2.7,   -3.7,   -4.0,   -3.7,   -4.0,   -3.6,   -3.5,   -2.8,  999.0,   -1.4,   -2.0,   -1.9,   -0.8,   -0.4,   -0.4,   -0.6,   -0.9,   -1.2,   -1.8,   -3.0,   -3.7,   -4.7,   -5.4,   -5.6
2001/12/28 02:50,  999.0,  999.0,  999.0,  999.0,  999.0,  999.0,    1.5,    2.6,    2.6,    2.5,    2.0,    1.4,    1.2,    1.9,    2.0,    2.3,    2.6,    2.1,    1.0,   -0.1,   -1.1,   -1.5,   -1.4,   -1.2,   -0.4,   -0.3,   -0.3,   -1.1,   -1.6,   -2.0,   -2.2,   -1.8,   -1.4,   -1.3,   -1.3,    1.1,  999.0,  999.0,   -0.1,   -0.2,   -0.4,   -0.6,   -0.6,   -0.7,   -0.7,   -0.6,   -0.9,   -2.3,   -3.0,   -3.9,   -4.6,   -4.5
2001/12/28 03:00,  999.0,  999.0,  999.0,  999.0,  999.0,  999.0,    2.4,    2.6,    2.4,    2.2,    1.6,    1.0,    1.4,    2.0,    2.5,    3.0,    2.8,    2.5,    1.8,    1.1,    0.1,   -0.4,   -0.1,   -0.1,   -0.2,   -0.1,   -0.1,   -0.3,   -0.9,   -1.4,   -1.6,   -1.4,   -1.4,   -1.3,   -0.9,   -2.1,  999.0,  999.0,   -1.7,   -1.4,   -1.5,   -2.0,   -2.0,   -1.6,   -1.5,   -1.5,   -1.5,   -2.6,   -3.4,   -4.1,   -4.0,   -2.9
2001/12/28 03:10,  999.0,  999.0,  999.0,  999.0,  999.0,  999.0,  999.0,    2.4,    2.1,    1.8,    1.4,    1.4,    1.8,    1.7,    1.9,    2.5,    2.3,    1.9,    1.0,    0.1,   -0.9,   -1.0,   -1.2,   -1.5,   -1.7,   -1.6,   -1.6,   -2.0,   -2.8,   -3.0,   -2.8,   -2.9,   -3.2,   -3.0,   -2.0,  999.0,  999.0,  999.0,  999.0,   -1.5,   -1.7,   -1.6,   -1.4,   -1.3,   -1.7,   -2.4,   -3.3,   -4.3,   -4.6,   -4.2,   -3.5,   -2.6
2001/12/28 03:20,  999.0,  999.0,  999.0,  999.0,  999.0,  999.0,    2.1,    2.1,    1.8,    1.5,    1.2,    1.2,    1.5,    1.8,    2.5,    2.7,    2.0,    1.4,    0.5,   -0.3,   -0.2,   -0.0,   -0.3,   -0.4,   -0.8,   -1.0,   -1.2,   -1.7,   -1.9,   -2.1,   -2.4,   -3.0,   -3.1,   -2.5,   -1.7,   -0.2,  999.0,  999.0,   -0.2,   -0.7,   -0.5,   -0.8,   -1.1,   -1.9,   -2.8,   -3.4,   -4.0,   -4.1,   -3.8,   -3.0,   -2.1,   -1.3
2001/12/28 03:30,  999.0,  999.0,  999.0,  999.0,  999.0,  999.0,    2.0,    1.8,    1.4,    1.0,    1.1,    1.4,    1.4,    1.4,    1.9,    1.9,    1.3,    0.2,   -0.6,   -0.1,   -0.1,   -0.1,   -0.3,   -1.0,   -1.2,   -1.6,   -2.1,   -2.6,   -3.1,   -3.7,   -3.8,   -3.9,   -3.9,   -3.7,   -2.7,   -1.1,  999.0,  999.0,    0.4,   -0.2,   -0.4,   -1.1,   -2.1,   -2.7,   -3.2,   -3.5,   -3.2,   -2.5,   -1.8,   -1.2,   -0.6,   -0.1
2001/12/28 03:40,  999.0,  999.0,  999.0,  999.0,  999.0,  999.0,  999.0,    1.8,    1.4,    1.0,    1.0,    0.7,    0.1,    0.9,    1.1,    0.5,   -0.0,   -0.6,   -0.5,   -0.2,   -0.4,   -0.8,   -1.0,   -1.4,   -1.1,   -1.2,   -1.6,   -2.4,   -2.9,   -3.1,   -3.1,   -2.9,   -2.7,   -2.0,   -1.0,  999.0,  999.0,  999.0,  999.0,    0.1,   -0.8,   -1.5,   -2.0,   -2.2,   -2.4,   -2.2,   -1.3,   -0.3,    0.5,    0.8,    0.6,   -0.2
2001/12/28 03:50,  999.0,  999.0,  999.0,  999.0,  999.0,  999.0,  999.0,    1.6,    0.9,    0.6,    1.0,    0.6,    0.3,    0.6,    1.0,    0.7,   -0.1,   -0.5,   -0.6,   -0.5,   -1.1,   -1.8,   -2.4,   -2.1,   -1.7,   -2.2,   -2.8,   -3.4,   -3.7,   -3.6,   -3.1,   -2.7,   -2.4,   -1.6,   -1.3,  999.0,  999.0,  999.0,    0.8,   -0.8,   -1.3,   -1.8,   -2.1,   -1.7,   -0.4,    0.7,    0.8,    0.8,    0.2,   -0.8,   -2.4,   -3.7
2001/12/28 04:00,  999.0,  999.0,  999.0,  999.0,  999.0,  999.0,  999.0,    1.4,    1.4,    1.5,    1.3,    0.3,   -0.2,    0.6,    0.7,    0.1,   -0.3,   -0.4,   -0.4,   -0.0,   -0.6,   -1.1,   -1.7,   -1.1,   -1.1,   -2.1,   -2.7,   -2.7,   -2.7,   -2.9,   -2.9,   -2.4,   -1.4,   -0.8,   -0.8,   -0.3,  999.0,  999.0,    0.3,   -0.5,   -1.2,   -1.4,   -1.0,    0.2,    1.2,    1.4,    0.9,   -0.6,   -2.7,   -4.0,   -5.2,   -6.4
2001/12/28 04:10,  999.0,  999.0,  999.0,  999.0,  999.0,  999.0,  999.0,    1.7,    1.7,    2.1,    1.7,    1.0,    1.1,    0.8,    0.2,   -0.0,   -0.3,   -0.2,   -0.4,   -0.8,   -1.6,   -2.3,   -2.1,   -1.5,   -2.0,   -3.1,   -3.9,   -4.4,   -4.6,   -4.5,   -3.6,   -2.6,   -2.1,   -1.3,   -0.4,    0.5,  999.0,  999.0,  999.0,  999.0,   -0.2,   -0.1,    0.4,    0.0,   -1.0,   -2.3,   -3.5,   -4.4,   -4.9,   -5.1,   -5.2,   -5.5
2001/12/28 04:20,  999.0,  999.0,  999.0,  999.0,  999.0,  999.0,    1.0,    1.4,    1.8,    2.2,    2.2,    1.5,    1.3,    0.8,    0.4,    0.2,   -0.1,   -0.6,   -0.7,   -0.6,   -1.5,   -2.4,   -1.9,   -1.8,   -2.7,   -3.5,   -3.8,   -4.2,   -3.7,   -3.0,   -2.3,   -1.3,   -0.6,   -0.1,    0.4,    1.2,  999.0,  999.0,  999.0,    1.4,    1.8,    0.0,   -2.6,   -4.2,   -4.7,   -4.8,   -4.8,   -4.7,   -4.2,   -3.8,   -4.0,   -4.9
2001/12/28 04:30,  999.0,  999.0,  999.0,  999.0,  999.0,  999.0,  999.0,    1.6,    1.5,    2.0,    2.8,    2.3,    1.4,    1.1,    0.4,   -0.3,   -0.4,   -1.0,   -1.2,   -1.5,   -1.9,   -2.5,   -2.7,   -3.0,   -3.3,   -3.3,   -3.1,   -3.7,   -3.5,   -3.0,   -1.8,   -0.8,   -0.2,    0.4,    1.1,  999.0,  999.0,  999.0,  999.0,  999.0,    0.8,   -0.8,   -2.3,   -2.9,   -3.2,   -3.7,   -3.6,   -3.2,   -3.4,   -4.1,   -4.9,   -5.2
2001/12/28 04:40,  999.0,  999.0,  999.0,  999.0,  999.0,  999.0,  999.0,    1.5,    1.6,    1.7,    2.2,    2.1,    1.4,    1.0,    0.2,   -0.5,   -0.8,   -1.1,   -1.3,   -1.8,   -2.8,   -3.1,   -3.2,   -3.8,   -3.9,   -3.0,   -2.5,   -2.3,   -2.2,   -1.9,   -1.2,    0.2,    0.8,    0.9,    0.4,   -0.5,  999.0,  999.0,   -0.7,   -0.8,   -1.1,   -1.1,   -1.5,   -2.7,   -4.1,   -5.1,   -5.7,   -6.0,   -6.0,   -5.9,   -6.0,   -6.1
2001/12/28 04:50,  999.0,  999.0,  999.0,  999.0,  999.0,    1.1,    1.4,    1.5,    2.2,    2.4,    2.4,    3.0,    3.6,    3.8,    3.5,    2.9,    2.3,    1.7,    1.1,    0.6,    0.2,   -0.0,   -1.1,   -2.1,   -3.0,   -3.7,   -4.4,   -4.4,   -4.0,   -3.7,   -3.5,   -3.2,   -3.4,   -2.7,   -1.0,   -1.1,   -1.7,   -1.9,   -0.9,    0.3,   -0.2,   -0.6,   -0.6,   -1.0,   -2.6,   -3.5,   -3.9,   -4.9,   -5.6,   -5.2,   -4.6,   -4.3
2001/12/28 05:00,  999.0,  999.0,  999.0,  999.0,    3.4,    3.2,    2.6,    2.0,    1.5,    1.1,    1.2,    0.7,    0.6,    0.4,    0.4,    0.7,    1.4,    2.1,    2.4,    2.2,    2.0,    1.9,    1.7,    0.7,   -0.5,   -2.1,   -3.3,   -3.9,   -4.3,   -4.4,   -4.5,   -5.0,   -5.8,   -6.3,   -6.1,   -6.7,   -6.6,   -2.9,   -2.5,  999.0,    0.8,   -0.6,   -1.3,   -1.5,   -1.7,   -1.8,   -1.8,   -2.3,   -3.3,   -3.3,   -2.8,   -2.8
2001/12/28 05:10,  999.0,  999.0,  999.0,  999.0,  999.0,  999.0,    0.6,    0.2,    0.0,   -0.1,    0.1,    0.6,    1.3,    1.9,    2.3,    2.6,    2.4,    2.3,    2.5,    2.6,    2.7,    2.8,    2.2,    1.4,    1.2,    0.6,    0.4,    0.7,    1.4,    1.4,    1.3,    0.9,    0.8,    0.1,   -0.9,   -1.4,   -1.4,    0.6,  999.0,  999.0,   -1.8,   -1.6,   -1.4,   -2.3,   -3.7,   -4.5,   -4.8,   -5.2,   -5.4,   -5.3,   -4.8,   -4.3
2001/12/28 05:20,  999.0,  999.0,  999.0,  999.0,  999.0,    0.3,    0.0,   -0.1,    0.2,    1.4,    3.1,    4.2,    5.0,    5.7,    6.0,    6.4,    6.8,    7.1,    7.2,    7.2,    7.2,    7.0,    6.2,    5.7,    5.0,    4.9,    4.1,    3.5,    2.9,    2.7,    2.5,    1.9,    1.3,    1.0,    0.7,    1.3,    2.3,    2.3,    0.7,   -1.2,   -1.5,   -2.4,   -3.2,   -3.9,   -4.5,   -5.3,   -5.4,   -5.3,   -5.8,   -6.0,   -5.4,   -4.3
2001/12/28 05:30,  999.0,  999.0,  999.0,  999.0,  999.0,   -0.9,   -0.8,    0.5,    1.6,    3.2,    5.1,    6.8,    7.8,    8.4,    8.0,    7.4,    4.9,    3.3,    2.1,    1.4,    1.3,    1.8,    2.2,    1.8,    1.9,    2.3,    2.6,    3.1,    3.3,    3.3,    3.2,    3.2,    3.3,    2.0,    0.6,   -2.6,   -2.5,   -0.3,    0.9,    0.4,    2.0,    1.6,   -0.0,   -1.9,   -3.6,   -4.7,   -5.5,   -5.7,   -5.9,   -6.1,   -5.9,   -4.9
2001/12/28 05:40,  999.0,  999.0,  999.0,  999.0,  999.0,   -0.4,    0.4,    1.6,    1.4,    2.4,    3.4,    3.9,    4.4,    5.5,    5.5,    4.6,    4.8,    5.6,    5.4,    5.0,    4.5,    4.1,    3.8,    4.1,    4.7,    5.1,    5.8,    6.0,    5.9,    5.1,    4.3,    3.8,    3.0,    2.0,    0.9,    0.1,    2.1,  999.0,  999.0,   -1.1,   -2.1,   -2.8,   -3.5,   -4.2,   -5.1,   -6.1,   -6.5,   -6.5,   -6.7,   -7.1,   -7.4,   -7.7
2001/12/28 05:50,  999.0,  999.0,  999.0,  999.0,  999.0,   -0.6,    1.5,    2.3,    2.0,    2.8,    4.0,    4.9,    5.2,    4.5,    4.2,    4.0,    3.9,    4.5,    5.0,    5.6,    6.0,    6.2,    5.8,    5.1,    4.7,    4.9,    5.0,    5.6,    6.5,    6.1,    5.1,    4.3,    3.3,    1.2,    0.8,    2.6,    3.7,    1.8,   -0.1,   -1.6,   -2.1,   -2.8,   -3.6,   -4.4,   -5.2,   -6.0,   -6.3,   -6.3,   -6.3,   -6.0,   -6.4,   -7.1
2001/12/28 06:00,  999.0,  999.0,  999.0,  999.0,  999.0,  999.0,    2.3,    2.4,    2.7,    3.7,    4.1,    4.4,    4.1,    3.6,    3.1,    2.7,    2.7,    2.6,    2.8,    3.5,    4.6,    4.8,    4.4,    4.2,    4.0,    4.1,    4.6,    5.1,    5.3,    5.6,    4.6,    2.2,    0.1,   -0.0,   -0.6,    2.3,  999.0,   -0.7,   -0.8,   -1.1,   -1.9,   -3.0,   -4.2,   -4.9,   -5.4,   -5.5,   -5.3,   -5.3,   -5.3,   -5.4,   -5.3,   -6.1
2001/12/28 06:10,  999.0,  999.0,  999.0,  999.0,  999.0,  999.0,    2.1,    2.6,    3.6,    4.6,    4.7,    4.1,    3.0,    2.5,    2.2,    2.3,    3.7,    4.7,    5.2,    5.6,    5.8,    5.7,    6.2,    6.4,    5.3,    4.8,    5.0,    5.4,    5.2,    5.1,    4.2,    2.0,    0.1,   -0.2,    0.1,   -0.2,    0.5,    0.6,   -0.4,   -0.8,   -1.8,   -3.0,   -4.3,   -5.1,   -5.8,   -5.6,   -4.9,   -4.6,   -5.1,   -5.7,   -5.3,   -5.3
2001/12/28 06:20,  999.0,  999.0,  999.0,  999.0,  999.0,  999.0,    2.3,    3.7,    4.2,    4.5,    3.7,    2.8,    1.9,    2.4,    2.2,    3.0,    5.1,    6.4,    6.4,    6.2,    6.0,    5.1,    4.4,    3.8,    2.5,    2.1,    2.0,    2.3,    2.4,    2.1,    1.6,    0.2,   -0.6,   -1.7,   -1.5,   -0.5,  999.0,  999.0,    0.3,   -1.0,   -2.6,   -4.0,   -4.8,   -5.7,   -6.1,   -5.9,   -5.5,   -5.5,   -5.5,   -5.5,   -5.5,   -5.1
2001/12/28 06:30,  999.0,  999.0,  999.0,  999.0,  999.0,  999.0,  999.0,    3.9,    1.6,    1.3,    1.3,    1.3,    1.0,    0.3,   -0.1,    0.5,    2.8,    2.8,    3.5,    4.4,    5.2,    4.5,    4.2,    3.6,    3.0,    3.0,    3.5,    4.2,    4.5,    3.9,    3.1,    2.4,    1.6,    0.5,   -0.2,   -0.5,    0.4,  999.0,   -0.2,   -0.9,   -1.9,   -2.2,   -2.9,   -3.8,   -4.6,   -4.9,   -4.6,   -4.5,   -4.5,   -4.3,   -4.4,   -4.4
2001/12/28 06:40,  999.0,  999.0,  999.0,  999.0,  999.0,  999.0,    3.2,    3.9,    4.0,    2.9,    1.4,    0.5,    1.2,    1.6,    1.8,    2.1,    2.6,    2.1,    1.6,    2.0,    3.3,    4.3,    3.2,    2.6,    2.4,    1.8,    1.3,    2.0,    1.9,    0.6,   -0.3,   -0.8,   -0.0,   -1.0,    0.0,    1.0,    2.7,  999.0,    0.4,   -1.0,   -1.1,   -1.0,   -1.2,   -1.6,   -2.2,   -2.5,   -3.1,   -3.7,   -3.9,   -4.2,   -4.3,   -4.6
2001/12/28 06:50,  999.0,  999.0,  999.0,  999.0,  999.0,  999.0,    2.1,    2.5,    1.9,    1.3,    1.1,    1.5,    2.1,    2.7,    2.8,    3.4,    3.2,    2.5,    2.1,    2.5,    3.6,    3.9,    3.4,    2.9,    2.2,    1.5,    1.5,    1.6,    2.2,    2.5,    2.2,    2.1,    2.5,    3.2,    2.9,    2.0,  999.0,  999.0,  999.0,    0.2,   -0.4,   -0.4,   -0.1,   -0.1,   -0.3,   -0.9,   -2.4,   -3.0,   -3.2,   -3.4,   -3.8,   -4.2
2001/12/28 07:00,  999.0,  999.0,  999.0,  999.0,  999.0,  999.0,    2.1,    2.4,    1.9,    1.7,    1.5,    1.3,    2.0,    2.0,    2.2,    2.8,    3.4,    3.4,    3.3,    3.8,    4.3,    3.9,    3.4,    3.0,    3.0,    2.3,    2.1,    2.5,    2.6,    1.9,    1.8,    1.9,    2.4,    3.3,    2.8,    1.5,    2.4,    2.4,    0.4,    0.1,   -0.7,   -0.9,   -1.1,   -1.5,   -1.6,   -1.3,   -1.5,   -2.5,   -3.5,   -4.0,   -4.3,   -5.0
2001/12/28 07:10,  999.0,  999.0,  999.0,  999.0,  999.0,  999.0,    1.2,    0.7,    0.7,    1.2,    0.7,    0.1,    0.7,    0.2,    0.6,    0.5,    0.9,    0.8,    1.3,    0.7,    0.5,   -0.2,    0.1,    1.4,    2.3,    2.4,    3.1,    4.2,    4.9,    6.0,    5.5,    5.1,    5.0,    5.0,    4.3,    3.1,    5.1,  999.0,  999.0,  999.0,    0.8,   -0.2,   -0.3,   -0.4,   -0.9,   -1.2,   -1.4,   -1.7,   -2.2,   -2.6,   -3.0,   -3.9
2001/12/28 07:20,  999.0,  999.0,  999.0,  999.0,  999.0,  999.0,    1.0,    1.1,    1.0,    1.8,    2.5,    2.3,    1.6,    1.1,    1.1,    2.1,    3.3,    3.5,    3.5,    3.1,    2.2,    1.8,    2.3,    3.3,    4.1,    4.0,    4.0,    4.5,    5.2,    5.2,    4.9,    4.1,    3.8,    4.3,    4.2,    3.8,  999.0,  999.0,  999.0,    3.4,    2.2,    1.3,   -0.5,   -1.4,   -1.8,   -2.1,   -2.1,   -2.2,   -2.6,   -2.7,   -2.5,   -2.7
2001/12/28 07:30,  999.0,  999.0,  999.0,  999.0,  999.0,    1.6,    1.3,    0.8,    1.2,    2.1,    2.7,    3.3,    2.7,    2.7,    3.3,    4.6,    5.6,    5.6,    5.9,    5.4,    4.9,    3.9,    3.3,    3.6,    4.0,    3.8,    3.9,    3.9,    3.9,    5.2,    5.7,    4.6,    4.7,    4.8,    4.6,    5.2,  999.0,  999.0,  999.0,    4.6,    3.7,    3.4,    1.1,   -0.7,   -1.3,   -1.5,   -1.9,   -2.2,   -2.1,   -2.5,   -3.2,   -3.4
2001/12/28 07:40,  999.0,  999.0,  999.0,  999.0,  999.0,  999.0,    0.5,    0.3,    1.1,    2.4,    3.1,    3.6,    3.3,    3.1,    3.0,    4.3,    4.7,    4.4,    4.4,    3.3,    2.5,    2.2,    2.5,    2.9,    2.9,    2.4,    1.7,    1.3,    2.1,    3.7,    5.4,    6.6,    7.1,    6.9,    5.3,    3.7,    4.8,    7.0,  999.0,    5.3,    3.3,    2.6,    1.4,    0.2,   -0.9,   -1.6,   -1.8,   -2.0,   -2.2,   -2.2,   -2.5,   -2.7
2001/12/28 07:50,  999.0,  999.0,  999.0,  999.0,  999.0,  999.0,   -0.7,   -0.4,    0.6,    2.2,    3.6,    4.1,    3.6,    2.7,    2.3,    3.4,    4.5,    4.0,    3.7,    3.2,    1.8,    1.3,    1.9,    2.5,    2.5,    1.9,    0.6,   -0.0,    0.7,    1.9,    3.1,    3.4,    3.2,    1.8,    0.8,    0.4,    2.2,    5.6,  999.0,    4.4,    3.5,    3.3,    2.4,    2.0,    1.4,    0.5,   -0.4,   -0.9,   -1.9,   -3.1,  999.0,   -4.7
2001/12/28 08:00,  999.0,  999.0,  999.0,  999.0,  999.0,  999.0,   -0.8,    0.6,    2.0,    2.9,    3.7,    3.8,    3.5,    3.6,    3.5,    4.7,    5.1,    4.4,    2.8,    1.6,    0.6,    0.2,    1.2,    1.6,    0.3,   -1.3,   -1.5,   -1.6,   -0.7,    1.1,    3.1,    4.2,    4.4,    3.2,    2.2,    0.8,    0.6,    2.2,    4.5,    4.3,    2.1,    0.7,   -0.9,   -0.9,   -1.0,   -1.5,   -1.8,   -2.0,   -1.7,   -1.5,   -3.0,   -3.3
2001/12/28 08:10,  999.0,  999.0,  999.0,  999.0,  999.0,  999.0,    4.2,    1.9,    3.1,    3.0,    3.6,    2.9,    3.3,    2.9,    2.8,    4.2,    2.2,    2.1,    1.5,    0.7,    0.4,    1.1,    1.7,    0.7,   -1.2,   -1.4,   -1.5,   -1.4,   -0.9,   -0.3,    0.8,    0.8,   -0.4,   -1.0,   -2.2,   -3.1,   -2.3,   -0.8,   -0.1,   -1.2,   -2.5,   -3.6,   -3.6,   -3.5,   -3.2,   -3.1,   -3.5,   -3.9,   -4.5,   -4.8,   -5.5,   -5.7
2001/12/28 08:20,  999.0,  999.0,  999.0,  999.0,  999.0,  999.0,   -0.3,    1.4,    2.4,    3.0,    4.4,    4.8,    4.5,    3.9,    3.9,    5.5,    5.8,    5.5,    4.6,    3.8,    3.0,    2.0,    1.6,    0.4,   -0.3,   -0.5,   -0.4,   -0.3,    0.9,    1.7,    1.7,    1.4,   -0.5,   -1.9,   -2.7,   -3.6,   -3.0,   -2.2,   -2.7,   -4.4,   -5.6,   -6.0,   -5.4,   -5.5,   -6.1,   -6.6,   -7.0,   -6.8,   -5.8,   -4.5,   -3.4,   -3.4
2001/12/28 08:30,  999.0,  999.0,  999.0,  999.0,  999.0,  999.0,    4.1,    4.5,    1.6,    1.9,    1.9,    2.2,    2.2,    2.0,    3.4,    5.4,    3.9,    4.1,    4.3,    3.8,    3.2,    3.6,    3.2,    2.7,    2.6,    3.9,    3.8,    3.2,    2.4,    3.8,    3.7,    2.5,    1.5,    0.5,    0.3,   -0.3,   -1.4,   -2.3,   -2.4,   -3.1,   -3.7,   -4.6,   -5.4,   -6.1,   -6.5,   -6.6,   -6.0,   -5.6,   -5.1,   -5.4,   -5.6,   -5.9
2001/12/28 08:40,  999.0,  999.0,  999.0,  999.0,  999.0,  999.0,    0.4,    3.2,    3.5,    3.1,    3.3,    3.0,    2.1,    2.3,    3.0,    4.1,    4.4,    5.1,    4.2,    4.0,    2.3,    0.5,    0.0,   -0.7,   -1.2,   -0.7,   -0.9,   -1.2,   -0.5,    0.2,    0.7,   -0.5,   -1.0,   -2.3,   -3.3,   -4.4,   -4.6,   -3.5,   -3.8,   -4.8,   -4.8,   -4.6,   -4.9,   -5.3,   -4.9,   -4.6,   -4.8,   -5.0,   -5.1,   -5.8,   -6.6,   -7.5
2001/12/28 08:50,  999.0,  999.0,  999.0,  999.0,  999.0,  999.0,  999.0,  999.0,    3.0,    2.1,    2.0,    1.9,    1.1,    1.5,    1.8,    2.6,    3.3,    3.9,    4.1,    4.0,    3.6,    1.7,    0.3,   -0.8,   -0.5,    0.0,   -0.0,   -0.5,   -0.3,   -0.3,   -0.4,   -0.9,   -2.1,   -3.6,   -3.7,   -4.4,   -4.8,   -4.9,   -3.3,   -3.6,   -4.3,   -4.7,   -4.6,   -4.9,   -4.8,   -5.1,   -5.3,   -5.2,   -5.2,   -5.3,   -5.5,   -6.2
2001/12/28 09:00,  999.0,  999.0,  999.0,  999.0,  999.0,  999.0,  999.0,   -0.3,    2.7,    4.0,    3.1,    2.2,  999.0,  999.0,  999.0,    2.3,  999.0,    3.4,  999.0,  999.0,    0.7,   -0.2,   -2.1,   -2.0,   -1.2,   -0.8,   -0.9,   -1.9,   -0.9,   -1.6,   -1.3,   -1.6,   -2.9,   -3.8,   -3.6,   -3.5,   -4.0,   -4.6,   -2.2,   -3.3,   -3.9,   -3.9,   -3.9,   -3.9,   -3.9,   -4.0,   -4.4,   -4.1,   -4.4,   -4.6,   -5.1,   -4.4
2001/12/28 09:10,  999.0,  999.0,  999.0,  999.0,  999.0,  999.0,  999.0,   -0.1,   -3.9,   -3.3,  999.0,   -1.5,   -0.1,    2.0,    2.9,    3.6,    3.7,    2.9,    2.4,    2.5,    0.7,   -1.0,   -2.1,   -1.5,   -0.4,   -0.6,   -0.8,   -1.3,   -1.0,   -0.6,    0.4,    0.8,    0.2,   -0.3,   -0.3,   -0.5,   -1.3,   -1.5,   -1.5,   -2.1,   -2.4,   -2.7,   -2.2,   -2.0,   -1.9,   -2.0,   -2.6,   -2.5,   -2.0,   -2.1,  999.0,  999.0
2001/12/28 09:20,  999.0,  999.0,  999.0,  999.0,  999.0,  999.0,  999.0,    1.6,    2.4,    3.4,    1.5,    1.0,    1.5,    1.5,    1.4,    2.2,    2.5,    3.2,    3.0,    1.0,    0.3,   -0.3,   -0.9,   -1.2,   -0.4,   -0.2,   -0.8,   -0.9,   -1.0,   -0.7,   -0.1,    0.5,    0.2,   -1.0,   -0.6,   -0.8,   -1.0,   -1.2,   -1.2,   -2.4,   -2.2,   -1.8,   -1.4,   -0.6,  999.0,  999.0,  999.0,  999.0,  999.0,  999.0,  999.0,  999.0
2001/12/28 09:30,  999.0,  999.0,  999.0,  999.0,  999.0,  999.0,  999.0,  999.0,    1.9,    1.4,    0.8,   -0.1,  999.0,  999.0,  999.0,  999.0,  999.0,  999.0,  999.0,  999.0,  999.0,  999.0,  999.0,   -2.8,  999.0,  999.0,    2.2,  999.0,   -0.1,   -1.1,   -0.3,  999.0,    1.0,    0.3,    0.5,    0.5,   -0.8,    0.4,   -0.2,   -0.4,   -0.2,  999.0,  999.0,  999.0,  999.0,  999.0,  999.0,  999.0,  999.0,  999.0,  999.0,  999.0
2001/12/28 09:40,  999.0,  999.0,  999.0,  999.0,  999.0,  999.0,  999.0,    0.5,    0.3,    0.3,    0.2,   -0.6,  999.0,   -0.8,  999.0,   -1.3,  999.0,  999.0,  999.0,  999.0,  999.0,  999.0,  999.0,  999.0,  999.0,  999.0,  999.0,  999.0,  999.0,  999.0,  999.0,  999.0,  999.0,  999.0,  999.0,  999.0,  999.0,  999.0,  999.0,  999.0,  999.0,  999.0,  999.0,  999.0,  999.0,  999.0,  999.0,  999.0,  999.0,  999.0,  999.0,  999.0
2001/12/28 09:50,  999.0,  999.0,  999.0,  999.0,  999.0,  999.0,  999.0,  999.0,   -0.5,   -0.2,    0.3,   -0.1,   -1.0,   -0.6,  999.0,  999.0,  999.0,  999.0,  999.0,  999.0,  999.0,  999.0,  999.0,  999.0,  999.0,  999.0,  999.0,  999.0,  999.0,  999.0,  999.0,  999.0,  999.0,  999.0,  999.0,  999.0,  999.0,  999.0,  999.0,    0.9,    1.6,    1.1,    1.0,    0.8,    1.1,    1.3,    0.8,    1.6,    1.1,  999.0,  999.0,  999.0
2001/12/28 10:00,  999.0,  999.0,  999.0,  999.0,  999.0,  999.0,  999.0,  999.0,   -0.4,    0.4,    0.8,    0.8,  999.0,  999.0,  999.0,  999.0,  999.0,  999.0,  999.0,  999.0,  999.0,  999.0,  999.0,  999.0,  999.0,  999.0,  999.0,  999.0,  999.0,  999.0,  999.0,  999.0,  999.0,  999.0,  999.0,  999.0,  999.0,  999.0,   -0.4,    0.6,    1.0,    0.9,  999.0,  999.0,  999.0,  999.0,  999.0,  999.0,    0.0,    0.4,    1.8,    1.3
2001/12/28 10:10,  999.0,  999.0,  999.0,  999.0,  999.0,  999.0,  999.0,  999.0,    0.4,    0.5,    1.0,    0.7,  999.0,    0.5,  999.0,   -2.6,  999.0,  999.0,  999.0,  999.0,  999.0,  999.0,  999.0,  999.0,  999.0,  999.0,  999.0,  999.0,  999.0,  999.0,  999.0,  999.0,  999.0,  999.0,  999.0,  999.0,  999.0,  999.0,  999.0,  999.0,    1.7,  999.0,  999.0,    1.7,    1.0,    0.7,    1.1,    1.5,    1.8,    1.9,    2.1,    2.4
2001/12/28 10:20,  999.0,  999.0,  999.0,  999.0,  999.0,  999.0,   -0.0,  999.0,    0.3,    0.6,    0.9,    0.3,  999.0,   -0.4,  999.0,  999.0,  999.0,  999.0,  999.0,  999.0,  999.0,  999.0,  999.0,  999.0,  999.0,  999.0,  999.0,  999.0,  999.0,  999.0,  999.0,  999.0,  999.0,  999.0,  999.0,  999.0,  999.0,  999.0,   -1.4,   -0.7,    0.3,    0.0,    0.2,    1.4,    2.2,    2.0,    1.8,    2.1,    2.1,    2.7,    3.2,    3.0
2001/12/28 10:30,  999.0,  999.0,  999.0,  999.0,  999.0,  999.0,   -0.1,  999.0,   -0.5,  999.0,   -0.5,   -0.1,  999.0,    0.5,  999.0,    3.1,  999.0,  999.0,  999.0,  999.0,  999.0,  999.0,  999.0,  999.0,  999.0,  999.0,  999.0,  999.0,  999.0,  999.0,  999.0,    5.7,    5.9,    4.6,  999.0,    4.8,    5.1,   -1.2,    0.6,    0.7,    0.8,    0.8,    0.7,    0.7,    1.0,    1.9,    1.9,    1.4,    1.2,    1.1,    3.3,    2.3
2001/12/28 10:40,  999.0,  999.0,  999.0,  999.0,  999.0,  999.0,   -0.1,    2.2,    3.0,    2.8,    4.8,    7.0,    5.4,    2.0,   11.7,    1.0,    6.5,  999.0,   -0.2,  999.0,    0.3,    1.9,    2.6,    4.1,    3.4,    2.8,    1.1,   -0.4,    0.1,    0.1,    0.8,    0.0,   -0.1,    0.6,    1.3,    1.8,    1.9,    1.8,    2.1,    0.7,   -0.2,   -0.9,   -0.5,   -0.1,    0.4,    0.8,    0.7,    0.2,    0.7,    1.0,    2.1,    3.0
2001/12/28 10:50,  999.0,  999.0,  999.0,  999.0,  999.0,  999.0,    0.1,    1.8,   -3.7,   -3.1,   -2.2,   -0.1,   -1.3,   -1.6,   -3.1,   -1.7,   -3.3,   -4.3,   -3.1,   -1.7,   -2.2,   -1.1,   -0.2,   -0.2,   -0.1,    0.4,   -0.5,   -0.4,   -0.2,    0.4,    1.3,    0.4,    0.6,    1.1,    1.0,    0.9,    1.1,    1.0,    1.1,    0.4,   -0.3,   -0.9,   -0.8,   -0.5,   -0.1,    0.3,    0.8,    0.9,    1.0,    1.0,    1.8,    3.0
2001/12/28 11:00,  999.0,  999.0,  999.0,  999.0,  999.0,  999.0,  999.0,   -0.5,    1.0,    0.9,   -0.2,   -0.8,   -1.1,   -1.4,   -2.0,   -2.4,   -2.4,   -1.8,   -1.8,   -1.6,   -1.1,   -0.6,    0.1,    0.5,    0.4,    0.4,    0.5,    0.7,    1.4,    1.9,    1.9,    1.5,    1.1,    1.0,    1.2,    1.3,    1.2,    0.6,    0.4,   -0.4,   -0.7,   -0.7,   -0.6,   -0.1,    0.4,    0.9,    1.1,    1.5,    1.5,    1.3,    2.3,    3.0
2001/12/28 11:10,  999.0,  999.0,  999.0,  999.0,  999.0,  999.0,   -0.8,   -0.4,    1.0,    1.9,    1.8,    0.6,    0.3,    0.4,    0.2,   -0.4,   -0.8,   -0.5,   -0.4,   -0.5,   -0.6,   -0.3,    0.5,    0.4,    0.6,    0.4,    0.3,    0.2,   -0.6,   -0.2,   -0.6,   -0.7,   -0.8,   -0.8,   -0.8,   -2.0,   -2.6,    0.4,    0.4,   -0.4,   -1.7,   -1.2,   -0.6,   -0.2,    0.5,    1.2,    1.4,    1.5,    1.6,    1.5,    1.7,    2.7
2001/12/28 11:20,  999.0,  999.0,  999.0,  999.0,  999.0,  999.0,  999.0,   -0.2,    1.1,    2.4,    2.9,    1.8,    0.8,    0.6,    0.3,    0.3,    0.5,    0.7,    0.3,    0.2,    0.8,    0.9,    2.0,    3.5,    4.3,    4.9,    4.9,    4.5,    4.3,    4.1,    3.3,    3.3,    3.5,    2.7,    1.3,    0.2,   -0.4,    1.3,    0.1,   -0.6,   -0.8,   -0.6,   -0.1,    0.2,    0.6,    1.0,    1.4,    1.5,    1.7,    1.9,    1.9,    2.4
2001/12/28 11:30,  999.0,  999.0,  999.0,  999.0,  999.0,  999.0,   -2.5,   -0.9,   -1.1,   -0.1,   -0.1,   -1.2,   -2.4,   -3.4,   -3.8,   -3.9,   -4.4,   -3.8,   -3.3,   -4.3,   -4.3,   -3.9,   -3.0,   -1.9,   -0.5,   -0.5,   -0.4,   -0.6,   -1.5,   -1.9,   -1.9,   -1.7,   -1.5,   -2.0,   -3.3,   -3.3,   -3.2,   -0.2,  999.0,   -0.8,   -1.0,   -0.5,   -0.0,    0.2,    0.0,   -0.1,    0.2,    0.8,    1.4,    1.9,    1.6,    2.0
2001/12/28 11:40,  999.0,  999.0,  999.0,  999.0,  999.0,  999.0,   -0.5,    0.1,    0.3,    0.0,    0.6,    0.6,   -0.1,   -1.0,   -1.4,   -1.6,   -0.9,   -0.4,   -0.9,   -0.9,   -0.9,   -0.6,   -0.1,    0.5,    1.2,    1.7,    1.8,    2.2,    2.5,    2.7,    2.8,    2.9,    3.7,    2.9,    1.6,    0.2,   -0.5,    1.6,    0.6,   -0.4,   -0.8,   -0.4,   -0.1,    0.2,    0.1,   -0.1,   -0.1,   -0.2,    0.4,    1.5,    1.4,    1.5
2001/12/28 11:50,  999.0,  999.0,  999.0,  999.0,  999.0,  999.0,   -0.3,    0.2,    0.4,    0.4,    0.8,    0.8,    0.1,   -1.1,   -1.7,   -2.0,   -1.6,   -1.0,   -1.2,   -1.0,   -1.1,   -1.2,   -0.8,   -0.0,    0.4,    0.9,    1.3,    1.9,    2.2,    2.3,    3.1,    3.6,    3.8,    2.9,    1.2,   -0.9,   -1.3,   -0.2,   -0.5,   -0.7,   -0.2,   -0.2,   -0.2,   -0.1,    0.1,    0.2,   -0.1,   -0.8,   -0.6,    0.6,    1.4,    1.7
2001/12/28 12:00,  999.0,  999.0,  999.0,  999.0,  999.0,  999.0,  999.0,    0.8,    0.6,    0.6,    0.5,    0.2,   -0.7,   -2.2,   -2.6,   -2.2,   -1.6,   -1.4,   -1.5,   -0.9,   -0.7,   -1.3,   -1.5,   -1.2,   -0.8,   -0.1,    1.1,    1.3,    1.4,    2.0,    1.8,    2.2,    2.7,    3.6,    3.8,    3.0,    1.7,    2.1,    1.1,    0.8,    0.8,    0.8,    1.2,    1.0,    1.0,    1.1,    1.0,   -0.2,   -0.4,    0.6,    1.0,    1.6
2001/12/28 12:10,  999.0,  999.0,  999.0,  999.0,  999.0,  999.0,  999.0,    0.3,    0.2,    0.1,    0.1,    0.4,   -0.5,   -2.0,   -2.7,   -2.8,   -2.5,   -2.2,   -1.9,   -1.6,   -0.9,   -0.3,    0.1,   -0.0,    0.2,    0.5,    0.8,    0.8,    1.2,    2.1,    2.0,    2.0,    2.0,    2.4,    3.0,    3.2,    2.5,    2.9,    1.7,    1.4,    1.3,    1.2,    1.1,    0.5,    0.1,   -0.0,    0.0,   -0.2,    0.0,    1.0,    1.7,    2.5
2001/12/28 12:20,  999.0,  999.0,  999.0,  999.0,  999.0,  999.0,    0.6,    1.2,    0.7,    0.3,    0.8,    1.3,    1.0,   -0.4,   -1.0,   -1.0,   -1.2,   -1.2,   -1.2,   -0.7,   -0.3,    0.2,    0.7,    0.1,    0.1,   -0.1,    0.4,    0.7,    0.9,    0.6,   -0.2,   -0.0,    0.6,    1.3,    1.8,    1.4,    0.6,  999.0,    2.6,    1.3,    1.0,    1.0,    0.6,    0.3,    0.4,    0.1,   -0.7,   -0.3,    0.6,    1.5,    1.9,    2.6
2001/12/28 12:30,  999.0,  999.0,  999.0,  999.0,  999.0,  999.0,    0.5,    0.7,    0.4,   -0.1,    0.1,    0.6,    0.2,   -1.5,   -2.3,   -2.2,   -2.1,   -1.9,   -1.5,   -1.2,   -1.1,   -0.4,    0.2,    0.4,    0.2,    0.3,    0.7,    1.2,    1.6,    1.2,    1.1,    0.9,    1.2,    2.0,    2.4,    1.9,    1.8,    4.5,    4.8,    2.9,    1.4,    1.0,    0.3,    0.1,   -0.2,   -0.1,   -0.7,   -0.0,    0.8,    1.3,    1.3,    2.4
2001/12/28 12:40,  999.0,  999.0,  999.0,  999.0,  999.0,  999.0,    1.2,    0.7,    0.1,   -0.3,    0.1,    0.6,    0.4,   -0.5,   -1.1,   -1.3,   -0.9,   -1.0,   -0.7,   -0.7,   -0.7,   -0.3,    0.1,    0.8,    1.0,    1.4,    1.9,    2.2,    2.6,    2.4,    1.6,    0.8,    0.5,    0.9,    1.8,    2.4,    1.5,    4.0,    3.0,    2.3,    1.8,    1.0,    0.6,    0.0,   -0.4,   -1.0,   -1.1,   -0.9,   -0.4,    0.3,    0.8,    1.9
2001/12/28 12:50,  999.0,  999.0,  999.0,  999.0,  999.0,  999.0,    1.2,    0.7,    0.5,    0.7,    1.2,    1.5,    1.7,    0.9,   -0.1,   -0.0,    0.4,    0.2,   -0.1,   -0.7,   -0.9,   -0.6,   -0.5,   -0.2,    0.2,    0.4,    0.7,    1.3,    1.3,    0.6,   -0.3,   -1.1,   -1.6,   -1.7,   -1.3,   -0.8,    1.0,    1.7,    0.3,   -0.2,   -0.2,   -0.0,   -0.2,   -0.4,   -0.6,   -0.8,   -0.7,   -0.7,   -0.9,   -0.8,   -0.3,    1.0
2001/12/28 13:00,  999.0,  999.0,  999.0,  999.0,  999.0,  999.0,    1.3,    0.9,    0.4,    0.1,    0.9,    1.1,    0.6,   -0.5,   -1.0,   -0.6,   -0.6,   -0.8,   -0.9,   -0.6,   -0.1,    0.5,    0.9,    1.2,    1.8,    2.3,    2.6,    2.9,    2.0,    1.3,    0.6,    0.0,   -0.4,   -0.5,   -0.3,   -0.3,    0.2,  999.0,    1.4,   -0.5,   -0.9,   -0.4,   -0.0,    0.1,   -0.4,   -0.9,   -1.0,   -1.1,   -1.3,   -1.5,   -1.3,   -0.2
2001/12/28 13:10,  999.0,  999.0,  999.0,  999.0,  999.0,  999.0,    1.0,    1.2,    0.6,    0.6,    1.1,    1.5,    0.9,   -0.0,   -0.7,   -0.3,   -0.2,   -0.5,   -0.4,    0.2,    0.7,    1.0,    1.1,    1.0,    1.5,    1.3,    1.1,    0.7,    0.4,   -0.4,   -1.5,   -1.4,   -1.4,   -1.4,   -1.3,   -1.1,   -0.2,    0.5,  999.0,   -1.2,   -1.6,   -1.1,   -0.4,    0.4,    0.7,    0.4,   -0.1,   -0.2,   -0.3,   -0.5,   -0.8,    0.2
2001/12/28 13:20,  999.0,  999.0,  999.0,  999.0,  999.0,  999.0,   -0.1,    0.5,   -0.2,   -0.5,    0.5,    0.8,    0.3,   -0.8,   -1.0,   -0.5,   -0.5,   -0.9,   -0.6,    0.3,    0.4,    1.4,    1.7,    1.7,    0.9,    0.2,   -0.1,   -0.0,    0.2,    0.3,   -0.6,   -1.3,   -1.9,   -1.7,   -1.9,   -1.4,   -1.4,    1.1,    0.0,   -0.6,   -0.8,   -0.8,   -0.4,    0.2,    0.7,    0.8,    0.3,    0.0,   -0.3,   -0.4,   -0.4,    0.1
2001/12/28 13:30,  999.0,  999.0,  999.0,  999.0,  999.0,  999.0,   -0.6,   -1.2,   -0.9,    0.3,    0.2,    0.5,    0.5,    0.5,    0.6,    0.3,   -0.8,   -1.8,   -1.7,   -1.3,   -0.9,   -0.9,   -1.5,   -2.4,   -3.5,   -3.7,   -3.1,   -2.6,   -2.5,   -2.1,   -2.7,   -3.2,   -4.0,   -5.5,   -5.0,   -4.0,   -0.3,  999.0,   -1.8,   -2.6,   -2.0,   -1.2,   -0.5,   -0.0,    0.1,    0.3,    0.0,   -0.2,   -0.5,   -0.6,   -0.5,    0.4
2001/12/28 13:40,  999.0,  999.0,  999.0,  999.0,  999.0,  999.0,    0.8,    0.7,    0.4,   -0.0,   -0.0,   -0.1,   -0.2,   -0.1,    0.3,    0.7,    1.1,    1.3,    1.4,    1.1,    0.6,    0.4,    0.3,   -0.4,   -1.1,   -1.6,   -1.1,   -0.9,   -0.5,   -0.2,    0.1,   -0.3,   -1.9,   -3.0,   -2.1,   -0.6,  999.0,  999.0,  999.0,   -1.2,   -2.0,   -1.6,   -0.8,   -0.1,    0.0,    0.2,    0.2,    0.1,   -0.1,   -0.3,   -0.4,    0.2
2001/12/28 13:50,  999.0,  999.0,  999.0,  999.0,  999.0,  999.0,    2.2,    1.6,    0.9,    0.3,   -0.5,   -0.2,   -0.1,    0.3,    0.4,    0.2,    0.2,   -0.4,   -0.8,   -0.8,   -1.3,   -1.3,   -1.3,   -1.1,   -0.7,   -0.2,   -0.2,   -0.6,   -0.6,   -0.2,    0.2,    0.7,   -0.5,   -1.6,   -1.3,    0.7,    1.9,    0.3,   -0.7,   -1.4,   -2.0,   -2.1,   -1.5,   -0.7,   -0.3,   -0.1,   -0.2,   -0.1,   -0.1,   -0.3,   -0.2,    0.2
2001/12/28 14:00,  999.0,  999.0,  999.0,  999.0,  999.0,  999.0,    2.6,    2.0,    1.7,    1.4,    1.6,    1.5,    0.8,    0.6,    0.6,    0.4,   -0.1,   -0.6,   -0.5,   -0.7,   -1.3,   -1.6,   -1.9,   -2.4,   -2.3,   -2.1,   -1.6,   -1.7,   -1.8,   -1.6,   -1.4,   -1.0,   -1.2,   -1.6,   -1.9,   -0.0,    2.5,    1.2,   -0.1,   -1.2,   -2.3,   -2.9,   -2.1,   -1.1,   -0.5,    0.2,    0.6,    0.8,    0.8,    0.4,    0.3,    0.5
2001/12/28 14:10,  999.0,  999.0,  999.0,  999.0,  999.0,  999.0,    3.0,    2.5,    2.3,    1.7,    0.9,    0.7,    0.7,    0.8,    0.6,   -0.5,   -0.9,   -0.7,   -0.9,   -1.2,   -1.8,   -2.3,   -2.7,   -3.3,   -3.2,   -2.8,   -2.4,   -2.3,   -2.3,   -1.5,   -1.4,   -1.2,   -1.3,   -1.7,   -1.1,    0.6,  999.0,  999.0,    0.6,   -0.7,   -1.3,   -2.0,   -2.0,   -1.4,   -0.9,   -0.6,   -0.2,    0.5,    0.8,    0.8,    0.6,    0.7
2001/12/28 14:20,  999.0,  999.0,  999.0,  999.0,  999.0,  999.0,    2.8,    2.0,    0.9,    0.3,   -0.1,    0.3,    0.9,    1.6,    0.9,   -0.6,   -1.4,   -1.2,   -1.1,   -0.8,   -1.0,   -1.0,   -0.7,   -0.6,   -0.8,   -0.7,   -0.5,   -0.3,   -0.2,    0.1,   -0.4,   -0.9,   -1.4,   -1.8,   -1.5,   -0.4,   -0.4,  999.0,    0.4,   -0.5,   -1.0,   -1.6,   -1.8,   -1.5,   -0.7,   -0.1,    0.2,    0.5,    1.1,    1.3,    1.2,    1.0
2001/12/28 14:30,  999.0,  999.0,  999.0,  999.0,  999.0,  999.0,    2.3,    1.3,    0.7,    0.7,    0.9,    1.3,    1.8,    1.6,    1.1,   -0.8,   -1.1,   -0.6,   -0.5,   -0.1,   -0.6,   -0.6,   -0.4,    0.1,    0.6,    0.7,    0.7,    0.4,    0.0,    0.1,   -0.2,   -0.8,   -1.0,   -1.0,   -1.1,   -0.6,    1.3,  999.0,    2.1,   -0.3,   -0.7,   -1.1,   -1.3,   -1.3,   -1.2,   -0.8,   -0.4,    0.1,    0.5,    0.5,    0.4,    0.3
2001/12/28 14:40,  999.0,  999.0,  999.0,  999.0,  999.0,  999.0,    1.5,    1.5,    1.9,    2.2,    2.3,    2.1,    1.1,    0.9,    1.0,   -0.6,   -1.1,   -0.6,   -0.6,   -0.9,   -2.0,   -1.7,   -1.0,   -0.2,    0.4,    0.1,   -1.0,   -1.8,   -2.4,   -1.8,   -1.8,   -1.3,   -1.0,   -1.3,   -0.9,   -0.4,    0.9,  999.0,  999.0,   -0.3,   -0.6,   -0.6,   -1.3,   -1.5,   -1.2,   -0.9,   -0.6,   -0.5,   -0.6,   -0.5,   -0.2,    0.3
2001/12/28 14:50,  999.0,  999.0,  999.0,  999.0,  999.0,  999.0,    1.0,    1.2,    1.4,    1.6,    1.6,    1.8,    2.0,    1.9,    1.1,   -0.2,   -0.5,   -0.2,   -0.3,   -0.5,   -1.0,   -0.6,    0.1,    0.3,    0.8,    0.4,   -0.6,   -1.5,   -1.4,   -1.3,   -1.2,   -1.4,   -1.2,   -1.2,   -1.4,   -0.8,    0.4,  999.0,  999.0,    0.3,   -0.6,   -1.1,   -1.7,   -2.1,   -1.7,   -1.3,   -1.3,   -1.0,   -1.1,   -0.7,   -0.4,   -0.2
2001/12/28 15:00,  999.0,  999.0,  999.0,  999.0,  999.0,  999.0,    2.2,    1.8,    2.2,    2.2,    2.5,    2.9,    2.7,    2.2,    0.7,   -0.3,    0.0,    0.2,   -0.0,    0.2,    0.0,    0.4,    1.0,    1.2,    2.2,    2.2,    0.6,   -0.1,   -0.4,   -0.8,   -0.3,   -0.6,   -0.5,   -0.3,   -0.7,    0.0,    0.0,    0.1,    1.6,  999.0,    0.3,   -0.5,   -1.7,   -2.2,   -1.9,   -1.6,   -1.6,   -2.0,   -2.0,   -0.9,    0.3,    0.7
2001/12/28 15:10,  999.0,  999.0,  999.0,  999.0,  999.0,  999.0,    2.0,    1.8,    2.0,    2.1,    2.7,    2.8,    2.2,    1.2,   -0.3,   -0.7,   -0.4,   -0.4,   -0.7,   -0.6,   -0.6,   -0.1,    0.4,    1.0,    1.1,    0.8,    0.5,   -0.3,   -0.9,   -1.6,   -1.5,   -1.8,   -2.2,   -2.8,   -2.6,   -2.9,   -2.3,   -0.2,  999.0,   -1.2,   -1.4,   -1.0,   -1.2,   -1.8,   -1.3,   -1.0,   -1.0,   -1.1,   -1.3,   -1.1,   -0.8,    0.1
2001/12/28 15:20,  999.0,  999.0,  999.0,  999.0,  999.0,  999.0,    0.5,    1.0,    1.2,    1.9,    2.8,    3.1,    1.4,   -0.0,   -1.1,   -1.0,   -0.9,   -1.1,   -1.1,   -0.8,   -0.7,   -1.1,   -0.6,    0.3,    0.2,   -0.1,   -0.1,   -0.3,   -0.8,   -1.0,   -1.9,   -2.0,   -2.1,   -2.9,   -3.0,   -3.1,   -2.1,   -0.1,  999.0,  999.0,   -1.2,   -0.8,   -0.5,   -1.1,   -1.2,   -0.8,   -0.3,   -0.4,   -1.0,   -1.1,   -1.6,   -1.1
2001/12/28 15:30,  999.0,  999.0,  999.0,  999.0,  999.0,  999.0,   -0.2,    1.2,    1.4,    2.2,    3.2,    2.7,    1.3,   -0.1,    0.2,    0.7,    0.3,    0.2,    0.7,    0.9,    0.5,    1.0,    1.6,    2.3,    2.5,    2.8,    2.7,    2.9,    3.1,    2.4,    1.1,    0.6,    0.1,    0.1,   -0.4,   -0.4,   -0.3,    0.8,  999.0,    1.9,    0.4,   -0.3,   -0.2,   -0.7,   -1.2,   -1.2,   -1.0,   -0.4,   -0.7,   -0.6,   -0.9,   -1.1
2001/12/28 15:40,  999.0,  999.0,  999.0,  999.0,  999.0,  999.0,   -0.8,    0.5,    1.5,    2.8,    3.3,    2.2,    0.9,   -0.0,   -0.0,    0.5,    0.3,    0.3,    0.4,    0.5,    0.3,    0.7,    1.6,    2.2,    2.3,    2.5,    2.6,    2.4,    2.3,    1.7,    1.2,    0.8,    1.0,    0.5,    0.3,   -0.0,    0.9,    1.0,    1.9,    1.0,    0.5,    0.2,    0.3,    0.0,   -0.8,   -1.6,   -1.8,   -1.7,   -0.9,   -0.4,   -1.0,   -1.3
2001/12/28 15:50,  999.0,  999.0,  999.0,  999.0,  999.0,  999.0,   -1.8,    0.7,    1.7,    2.9,    3.0,    1.5,    0.3,   -0.4,   -0.6,    0.1,    0.7,    0.3,    0.1,    0.1,   -0.2,   -0.2,    0.1,    0.7,    0.6,    1.0,    0.5,   -0.2,   -0.2,   -0.0,   -0.9,   -2.4,   -1.8,   -2.0,   -3.2,   -6.4,   -2.8,   -1.6,    1.2,    0.7,    0.1,   -0.2,   -0.2,    0.3,    0.4,   -0.2,   -0.9,   -0.9,   -0.6,   -0.5,   -0.7,   -1.3
2001/12/28 16:00,  999.0,  999.0,  999.0,  999.0,  999.0,  999.0,   -1.5,    0.2,    0.6,    1.6,    1.6,    0.3,   -1.3,   -1.8,   -1.6,   -1.1,   -1.4,   -1.3,   -1.1,   -1.1,   -1.4,   -1.9,   -1.3,   -0.3,    0.0,    0.1,   -0.2,   -0.2,    0.1,    0.1,   -0.3,   -0.9,   -0.2,   -0.4,   -1.4,   -1.5,   -0.9,    1.0,  999.0,    1.0,    0.7,    0.3,    0.2,    0.3,    0.5,    0.3,   -0.2,   -0.3,   -0.4,   -0.8,   -1.1,   -1.3
2001/12/28 16:10,  999.0,  999.0,  999.0,  999.0,  999.0,  999.0,  999.0,   -0.9,    0.2,    1.8,    1.8,    0.8,    0.2,   -0.1,    0.2,    0.7,    1.0,    0.9,    0.6,   -0.4,   -0.7,   -0.9,   -0.3,    0.3,    0.1,   -0.5,   -0.7,   -0.4,   -0.1,    0.7,    0.4,    0.3,    0.2,    0.0,   -0.5,   -0.8,   -0.5,    1.2,  999.0,    2.1,    0.7,    0.0,   -0.3,   -0.2,    0.3,    0.3,    0.1,    0.1,    0.2,    0.0,   -0.2,   -0.5
2001/12/28 16:20,  999.0,  999.0,  999.0,  999.0,  999.0,  999.0,  999.0,   -1.0,   -0.2,    1.1,    0.9,   -0.1,    0.3,    0.8,    1.2,    1.6,    1.8,    2.0,    2.1,    1.2,    0.8,    0.6,    0.9,    0.5,    0.1,   -0.2,    0.4,    0.9,    1.0,    1.4,    1.6,    1.4,    1.2,    0.9,    0.6,    0.1,    0.1,    0.3,  999.0,  999.0,   -0.2,   -0.7,   -1.0,   -0.8,   -0.3,    0.3,    0.3,    0.5,    0.4,    0.1,   -0.3,   -0.4
2001/12/28 16:30,  999.0,  999.0,  999.0,  999.0,  999.0,  999.0,   -3.0,   -0.4,    0.1,    1.3,    1.0,    0.5,    0.9,    1.4,    1.2,    1.5,    1.5,    1.6,    1.7,    1.0,    0.3,   -0.2,   -0.6,   -0.9,   -1.7,   -1.4,   -0.4,    0.2,    0.5,    0.9,    1.2,    0.9,    1.3,    1.0,    0.5,    0.2,    0.5,    2.0,  999.0,    2.2,    0.3,   -0.6,   -0.9,   -0.7,   -0.1,    0.6,    0.7,    0.6,    0.2,   -0.3,   -0.7,   -0.8
2001/12/28 16:40,  999.0,  999.0,  999.0,  999.0,  999.0,  999.0,  999.0,    0.1,    0.4,    0.7,    0.6,    0.5,    0.5,    0.7,    0.8,    1.4,    2.0,    2.6,    2.3,    1.6,    0.8,   -0.2,   -0.9,   -1.8,   -1.8,   -1.2,   -0.1,    0.6,    1.0,    0.7,    0.4,    0.2,    0.0,   -0.1,   -0.6,   -0.4,   -0.3,    0.5,  999.0,  999.0,   -0.1,   -0.7,   -0.6,   -0.7,    0.1,    0.9,    0.9,    0.9,    0.8,    0.5,    0.1,    0.1
2001/12/28 16:50,  999.0,  999.0,  999.0,  999.0,  999.0,  999.0,   -2.6,    0.1,    0.8,    1.2,    1.3,    1.2,    1.3,    0.6,    0.5,    1.0,    0.9,    0.8,    0.6,    0.3,   -0.4,   -1.2,   -2.0,   -2.7,   -2.2,   -1.5,   -0.2,    0.5,    1.1,    1.2,    1.1,    1.4,    0.8,    0.4,   -0.7,   -0.4,    0.0,    1.2,  999.0,  999.0,   -0.4,   -0.7,   -1.1,   -1.9,   -1.7,   -0.6,    0.0,    0.6,    1.2,    0.8,    0.6,    0.9
2001/12/28 17:00,  999.0,  999.0,  999.0,  999.0,  999.0,  999.0,  999.0,    0.8,    1.7,    2.1,    1.6,    1.6,    1.7,    0.8,    0.8,    1.2,    0.8,    0.8,    0.6,    1.0,    0.7,    0.0,   -0.7,   -0.7,   -0.5,    0.7,    1.7,    2.2,    2.4,    2.4,    2.8,    2.4,    2.3,    1.9,    1.5,    1.1,    1.5,    1.8,  999.0,    1.0,    0.0,   -1.3,   -3.1,   -3.5,   -2.9,   -2.7,   -2.6,   -2.2,   -0.9,    0.2,    0.3,    1.2
2001/12/28 17:10,  999.0,  999.0,  999.0,  999.0,  999.0,  999.0,   -1.6,    0.5,    0.9,    1.2,    1.5,    1.7,    1.1,    0.6,    1.2,    1.6,    1.4,    1.5,    1.2,    1.4,    1.5,    0.1,   -1.2,   -1.0,   -0.8,    0.3,    0.9,    1.5,    1.8,    2.1,    2.4,    2.4,    1.5,    0.8,    0.5,    0.4,    0.1,    0.6,  999.0,    0.0,   -0.9,   -2.5,   -4.0,   -4.3,   -3.9,   -2.6,   -2.0,   -1.6,   -0.4,    0.5,    1.1,    1.5
2001/12/28 17:20,  999.0,  999.0,  999.0,  999.0,  999.0,  999.0,   -1.1,    0.3,    0.3,    0.7,    1.4,    1.3,    0.8,    0.4,    0.7,    0.6,    0.6,    0.5,    0.2,    0.5,    0.8,    0.1,   -1.1,   -1.3,   -1.6,   -0.7,    0.2,    0.7,    1.4,    1.9,    2.3,    1.8,    1.5,    0.7,    0.1,   -0.0,   -0.2,    1.5,  999.0,   -0.0,   -0.9,   -2.6,   -3.6,   -3.9,   -3.2,   -1.9,   -1.5,   -1.1,   -0.2,    0.6,    0.9,    1.2
2001/12/28 17:30,  999.0,  999.0,  999.0,  999.0,  999.0,  999.0,   -0.7,    1.0,    0.2,    1.3,    1.9,    2.2,    1.9,    1.8,    2.3,    2.3,    2.1,    1.7,    1.2,    0.9,    0.5,    0.9,    0.3,   -0.5,   -1.0,   -0.3,    0.5,    1.0,    1.5,    2.1,    2.7,    1.9,    0.7,   -0.2,   -0.5,   -0.6,   -0.6,    0.8,  999.0,    0.4,   -0.8,   -2.1,   -3.4,   -3.6,   -3.2,   -2.4,   -1.3,   -1.0,   -0.6,    0.4,    0.6,    1.0
2001/12/28 17:40,  999.0,  999.0,  999.0,  999.0,  999.0,  999.0,  999.0,    0.9,    0.4,    1.0,    1.7,    1.6,    1.0,    1.1,    0.8,    0.9,    0.8,    0.7,    0.4,    0.2,   -0.2,    0.3,    0.6,    0.1,   -0.4,    0.1,    1.0,    1.7,    1.7,    2.1,    2.7,    2.5,    1.7,    1.2,    0.7,    0.3,   -0.1,   -0.2,    0.7,   -0.3,   -0.6,   -1.7,   -2.4,   -2.3,   -2.3,   -1.4,   -0.8,   -0.8,   -0.5,   -0.7,    0.1,    0.2
2001/12/28 17:50,  999.0,  999.0,  999.0,  999.0,  999.0,  999.0,  999.0,    0.8,    1.2,    1.6,    2.2,    2.2,    2.1,    1.5,    1.4,    1.6,    1.3,    1.2,    1.5,    1.1,    0.5,   -0.1,   -0.3,    0.5,    0.4,    0.6,    1.0,    0.3,    0.8,    0.8,    1.7,    1.2,    0.1,    0.4,   -0.4,   -1.0,   -1.8,   -1.4,   -1.1,   -0.3,   -1.3,   -2.0,   -1.9,   -2.0,   -1.3,   -0.4,   -0.2,    0.0,    0.3,    0.4,    0.3,    0.2
2001/12/28 18:00,  999.0,  999.0,  999.0,  999.0,  999.0,  999.0,  999.0,   -0.9,    0.1,    0.3,    0.8,    1.0,    1.4,    1.6,    1.3,    1.4,    1.4,    1.0,    1.0,    0.8,    0.4,    0.3,    0.1,    0.4,    0.0,    0.5,    0.6,    0.9,    0.6,    0.9,    1.9,    2.2,    1.4,    1.4,    0.6,    0.5,    0.3,    0.0,    0.1,    0.4,   -0.9,   -1.7,   -1.7,   -1.7,   -1.1,   -0.2,    0.2,    0.6,    1.2,    1.8,    2.0,    2.1
2001/12/28 18:10,  999.0,  999.0,  999.0,  999.0,  999.0,  999.0,  999.0,   -1.1,    0.3,    0.7,    1.5,    1.7,    1.0,    1.3,    0.7,    1.3,    1.5,    0.7,    1.3,    1.5,    1.1,    0.8,    1.2,    2.1,    2.4,    2.2,    2.0,    2.0,    2.3,    2.7,    3.1,    3.5,    2.9,    2.7,    1.7,    1.1,    0.3,    0.7,   -0.3,   -0.1,   -1.9,   -1.9,   -1.5,   -1.2,   -0.3,    0.2,    0.5,    0.9,    1.4,    2.4,    3.2,    3.3
2001/12/28 18:20,  999.0,  999.0,  999.0,  999.0,  999.0,  999.0,  999.0,   -1.0,    0.1,    0.5,    1.6,    2.5,    2.0,    2.0,    1.8,    1.5,    0.9,    0.0,    0.2,    0.4,    0.3,   -0.4,    0.4,    1.0,    1.7,    1.7,    1.7,    2.0,    2.3,    2.7,    2.8,    2.5,    2.1,    1.5,    1.0,    0.3,    0.0,   -0.2,   -0.9,   -0.9,   -2.1,   -2.2,   -1.7,   -0.9,    0.2,    0.8,    1.1,    1.4,    2.3,    3.1,    3.4,    3.3
2001/12/28 18:30,  999.0,  999.0,  999.0,  999.0,  999.0,  999.0,  999.0,   -0.9,    0.6,    0.1,    0.6,    0.5,    0.4,    0.2,    0.6,    0.9,    0.2,    0.1,   -0.3,   -0.2,   -0.4,   -1.1,   -0.7,   -0.3,    0.0,    0.3,    0.6,    1.3,    1.8,    3.1,    3.4,    3.0,    3.1,    2.1,    1.5,    1.0,    0.7,    0.6,    0.0,   -0.8,   -1.9,   -2.2,   -1.7,   -0.7,    0.4,    1.5,    2.2,    2.6,    3.0,    3.1,    3.2,    3.4
2001/12/28 18:40,  999.0,  999.0,  999.0,  999.0,  999.0,  999.0,  999.0,   -4.0,   -2.1,    1.9,    3.7,    5.0,    4.0,    2.7,    2.9,    1.9,    0.4,    0.3,    0.3,    0.3,   -0.8,   -1.4,   -0.8,    0.4,    0.5,    0.6,    0.6,    1.6,    2.5,    3.6,    3.7,    4.2,    3.8,    3.1,    2.1,    1.2,    0.7,    0.9,    2.2,    0.5,   -1.2,   -1.7,   -1.6,   -0.9,    0.2,    1.5,    2.6,    3.2,    3.8,    3.1,    3.7,    3.1
2001/12/28 18:50,  999.0,  999.0,  999.0,  999.0,  999.0,  999.0,  999.0,    0.7,    0.5,   -1.6,   -2.1,   -0.2,   -3.5,   -4.1,   -2.1,    7.1,   14.6,   11.9,    6.4,    6.7,    2.8,    3.4,   -0.4,    0.4,    1.3,    1.3,    1.4,    1.8,    3.0,    3.7,    4.0,    4.1,    4.2,    3.8,    2.6,    2.3,    1.7,    1.3,    3.3,    1.5,   -0.2,   -1.0,   -0.9,   -0.4,    0.7,    2.0,    3.3,    3.8,    3.7,    3.4,    3.7,    3.9
2001/12/28 19:00,  999.0,  999.0,  999.0,  999.0,  999.0,  999.0,  999.0,    1.2,    1.3,    1.0,    0.8,    1.5,    0.6,    0.8,    1.6,  999.0,  999.0,  999.0,  999.0,  999.0,  999.0,    1.0,    0.6,    0.2,    1.3,    1.0,    1.4,    2.6,    3.2,    3.7,    4.3,    4.2,    4.5,    4.0,    3.4,    2.9,    2.1,    1.4,    2.2,    0.5,   -0.3,   -0.4,   -0.9,   -0.6,    0.8,    2.0,    3.6,    4.1,    4.4,    4.2,    4.0,    3.8
2001/12/28 19:10,  999.0,  999.0,  999.0,  999.0,  999.0,  999.0,   -4.2,   -0.3,    0.6,    0.7,    0.8,    0.4,   -0.2,    0.0,    0.4,  999.0,  999.0,    5.4,    4.0,    7.8,    5.2,    1.2,    0.1,    0.5,    0.8,    0.6,    0.9,    1.8,    2.9,    3.4,    3.9,    4.1,    4.4,    4.4,    3.6,    2.9,    2.4,    1.1,    2.6,    1.0,    0.1,    0.3,   -0.3,    0.0,    1.4,    2.2,    3.2,    4.5,    4.5,    3.8,    3.9,    3.7
2001/12/28 19:20,  999.0,  999.0,  999.0,  999.0,  999.0,  999.0,  999.0,    1.2,    1.1,    1.2,    1.1,   -0.0,   -0.2,   -0.5,    0.6,  999.0,  999.0,  999.0,  999.0,    1.2,    0.6,   -0.1,   -0.3,    0.2,    0.3,    0.2,    0.1,    1.2,    3.0,    3.7,    4.2,    4.6,    5.0,    4.8,    4.2,    3.8,    2.9,    2.6,    2.4,    1.1,    0.3,    0.6,    0.5,    0.8,    2.0,    3.0,    3.3,    3.9,    3.6,    3.2,    3.3,    3.0
2001/12/28 19:30,  999.0,  999.0,  999.0,  999.0,  999.0,  999.0,  999.0,    1.5,    1.2,    1.6,    1.1,    0.6,    0.3,    0.5,    0.9,    1.4,    1.5,    0.6,    0.4,    0.9,  999.0,    0.3,   -0.1,    0.1,   -0.9,   -1.2,   -0.8,    0.0,    0.8,    2.0,    2.6,    2.8,    2.8,    3.1,    2.6,    2.0,    0.7,    1.2,    2.3,    1.1,    0.8,    0.9,    0.9,    2.3,    3.7,    4.3,    4.3,    4.2,    3.6,    2.9,    2.8,    2.2
2001/12/28 19:40,  999.0,  999.0,  999.0,  999.0,  999.0,  999.0,  999.0,    1.6,    0.9,    1.5,    1.2,    0.3,    0.6,    0.5,    0.8,    1.1,    0.6,   -0.2,   -0.8,   -0.4,    0.6,    0.5,    0.3,   -0.2,   -0.9,   -0.8,   -0.4,    0.3,    1.3,    2.2,    3.0,    3.7,    3.5,    3.5,    3.0,    1.9,    1.1,    1.8,  999.0,    3.0,    1.9,    1.6,    2.0,    3.8,    4.7,    4.9,    4.7,    4.4,    3.7,    2.3,    1.7,    0.9
2001/12/28 19:50,  999.0,  999.0,  999.0,  999.0,  999.0,  999.0,   -3.5,    0.8,    0.5,    1.1,    1.1,    0.8,    0.8,    0.7,    1.1,    1.4,    0.8,   -0.0,   -0.4,   -0.3,   -0.1,   -0.6,   -1.0,   -1.4,   -1.4,   -1.1,   -0.9,   -0.7,    0.2,    1.4,    2.4,    2.8,    3.3,    3.7,    3.5,    2.3,    1.5,    3.2,  999.0,    3.1,    2.5,    2.1,    2.9,    4.2,    4.6,    4.6,    4.4,    3.5,    2.2,    1.0,   -0.3,   -1.2
2001/12/28 20:00,  999.0,  999.0,  999.0,  999.0,  999.0,  999.0,    1.4,    2.2,    1.3,    1.4,    1.7,    1.6,    1.4,    1.5,    2.1,    2.4,    2.2,    1.6,    1.2,    0.4,   -0.0,    0.0,    0.0,   -0.0,   -0.2,   -0.3,   -0.2,    0.3,    0.9,    2.1,    3.2,    4.2,    4.6,    4.8,    4.1,    2.7,    2.0,    4.6,  999.0,  999.0,    2.5,    2.8,    3.9,    4.9,    4.7,    3.9,    3.0,    2.1,    0.2,   -0.7,   -1.1,   -1.0
2001/12/28 20:10,  999.0,  999.0,  999.0,  999.0,  999.0,  999.0,    0.3,    1.5,    0.8,    0.5,    0.5,    0.7,    0.9,    1.0,    1.5,    1.7,    1.9,    2.2,    1.7,    1.1,    0.6,    0.8,    0.7,    0.4,   -0.1,    0.0,    0.1,    0.8,    1.7,    2.6,    3.8,    4.8,    5.2,    5.5,    4.5,    3.5,    2.9,    4.0,  999.0,    3.3,    2.7,    2.7,    3.5,    4.0,    4.1,    4.3,    3.6,    2.8,    0.8,   -0.6,   -0.7,    0.1
2001/12/28 20:20,  999.0,  999.0,  999.0,  999.0,  999.0,  999.0,   -3.2,    0.5,    0.8,    0.6,    0.9,    1.3,    1.7,    1.6,    2.1,    2.0,    1.5,    1.4,    1.4,    0.7,    0.6,    0.8,    0.5,   -0.3,   -0.2,   -0.1,   -0.3,    0.4,    1.9,    2.9,    3.6,    3.9,    4.7,    4.7,    3.6,    3.3,    3.4,    3.6,  999.0,  999.0,    2.9,    3.2,    4.3,    5.1,    5.3,    4.6,    2.9,    1.8,    0.5,   -0.5,    0.4,    0.9
2001/12/28 20:30,  999.0,  999.0,  999.0,  999.0,  999.0,  999.0,  999.0,    1.8,    1.6,    1.6,    2.3,    3.2,    3.1,    2.6,    2.0,    1.5,    0.8,    0.7,    0.1,    0.2,    0.1,    0.2,   -0.3,   -0.5,   -0.0,    0.8,    0.6,   -0.8,    1.4,    2.5,    3.1,    3.7,    4.2,    4.3,    3.2,    2.8,    2.3,    4.6,  999.0,  999.0,    1.9,    2.8,    4.8,    6.0,    4.9,    3.9,    2.8,    1.6,    0.5,    0.2,    1.1,    2.0
2001/12/28 20:40,  999.0,  999.0,  999.0,  999.0,  999.0,  999.0,  999.0,    2.5,    2.4,    1.5,    1.9,    1.8,    1.5,    1.3,    1.4,    0.9,    0.4,   -0.0,   -0.3,   -0.1,    0.1,    0.1,   -0.3,   -0.9,   -0.7,   -0.2,   -0.2,    0.1,    1.2,    2.8,    4.2,    4.6,    5.4,    5.3,    5.0,    4.3,    3.4,    3.7,  999.0,    5.4,    4.3,    4.5,    4.9,    4.4,    4.4,    3.9,    2.9,    1.7,    0.8,    0.9,    1.4,    2.1
2001/12/28 20:50,  999.0,  999.0,  999.0,  999.0,  999.0,  999.0,  999.0,    2.3,    2.9,    2.6,    2.0,    1.8,    1.8,    1.7,    1.6,    1.0,    0.3,    0.4,    0.7,    0.7,    1.0,    0.7,   -0.2,   -0.7,   -0.6,   -0.5,   -0.3,    0.3,    0.8,    1.4,    2.8,    4.1,    4.7,    4.8,    4.0,    3.6,    3.7,    4.9,  999.0,  999.0,    6.1,    6.2,    6.1,    5.7,    5.8,    5.5,    4.2,    2.4,    1.7,    1.8,    2.0,    2.6
2001/12/28 21:00,  999.0,  999.0,  999.0,  999.0,  999.0,  999.0,  999.0,    3.1,    4.1,    4.4,    3.0,    2.6,    2.1,    1.1,    0.8,    0.7,    0.5,   -0.1,    0.2,    0.0,    0.2,   -0.5,   -1.5,   -1.6,   -1.4,   -1.4,   -0.9,   -0.4,   -0.2,    0.8,    2.8,    3.5,    4.2,    4.6,    3.9,    3.8,    3.8,    3.5,    6.1,  999.0,    6.5,    6.7,    7.1,    6.8,    6.4,    5.8,    5.5,    4.6,    3.4,    2.5,    2.4,    2.5
2001/12/28 21:10,  999.0,  999.0,  999.0,  999.0,  999.0,  999.0,  999.0,    1.3,    2.0,    1.8,    2.6,    1.6,    0.7,    0.4,   -0.0,   -0.3,   -1.2,   -2.0,   -1.4,   -0.6,   -0.1,   -0.6,   -1.9,   -2.1,   -2.5,   -2.8,   -2.7,   -2.7,   -2.1,   -1.1,    0.7,    1.8,    2.6,    3.3,    2.9,    2.0,    2.3,    4.1,  999.0,    5.6,    5.5,    6.1,    7.3,    7.9,    8.1,    7.8,    7.0,    6.2,    5.4,    5.2,    4.2,    3.8
2001/12/28 21:20,  999.0,  999.0,  999.0,  999.0,  999.0,  999.0,    1.0,    2.2,    3.1,    4.0,    4.1,    3.7,    3.2,    3.2,    2.7,    1.3,    0.7,    0.6,    0.4,    0.4,    0.1,   -0.1,   -0.3,   -0.4,   -0.4,   -0.4,   -0.1,    0.1,    0.4,    1.2,    1.6,    3.4,    4.5,    4.9,    5.4,    4.9,    4.3,    4.4,    7.2,    6.9,    6.6,    7.0,    8.7,    9.4,    9.3,    8.7,    7.7,    6.8,    6.9,    5.8,    5.7,    6.0
2001/12/28 21:30,  999.0,  999.0,  999.0,  999.0,  999.0,  999.0,    1.9,    2.4,    3.1,    3.6,    3.6,    3.0,    2.2,    2.0,    1.6,    0.5,   -0.4,    0.2,    0.7,    0.9,    0.6,    0.3,    0.0,    0.1,    0.1,   -0.1,    0.2,    0.6,    1.0,    1.8,    2.1,    3.0,    3.7,    4.5,    5.1,    4.7,    4.5,    4.6,    5.8,    5.7,    6.1,    7.6,    9.6,   10.5,   10.5,    8.5,    7.6,    6.6,    5.8,    5.0,    5.0,    5.6
2001/12/28 21:40,  999.0,  999.0,  999.0,  999.0,  999.0,  999.0,  999.0,    3.1,    3.4,    3.9,    3.7,    3.2,    2.2,    1.9,    1.2,    0.5,   -0.1,    0.1,    0.3,    0.9,    1.4,    0.8,    0.8,    1.8,    2.3,    1.9,    1.5,    2.1,    2.3,    2.8,    2.9,    4.5,    4.7,    5.6,    6.4,    6.1,    5.7,    5.9,    6.4,    6.3,    6.8,    8.7,   11.1,   12.9,  999.0,    8.5,    8.3,    7.6,    7.1,    6.5,    6.0,    6.4
2001/12/28 21:50,  999.0,  999.0,  999.0,  999.0,  999.0,  999.0,  999.0,    3.0,    3.5,    3.7,    3.1,    2.5,    1.9,    1.9,    1.8,    0.9,    0.4,   -0.2,   -0.2,    0.7,    1.2,    0.9,    1.0,    1.6,    2.0,    2.2,    1.5,    1.5,    1.6,    2.2,    3.0,    4.0,    4.5,    5.6,    6.2,    5.8,    5.6,    6.0,    6.1,    6.1,    7.4,    9.7,   11.6,   12.2,   10.4,    8.8,    7.5,    7.4,    7.7,    6.7,    6.6,    6.6
2001/12/28 22:00,  999.0,  999.0,  999.0,  999.0,  999.0,  999.0,  999.0,    3.9,    4.5,    4.3,    3.4,    3.2,    2.5,    2.5,    3.0,    2.0,    0.9,   -0.4,   -0.9,    0.8,    2.1,    2.1,    1.6,    2.6,    3.1,    3.7,    4.8,    2.1,    2.1,    2.7,    3.0,    3.5,    4.2,    4.8,    5.1,    5.1,    5.4,    6.1,    6.4,    6.6,    7.8,    9.3,   10.7,  999.0,  999.0,  999.0,    7.7,    7.3,    6.8,    6.6,    5.6,    6.4
2001/12/28 22:10,  999.0,  999.0,  999.0,  999.0,  999.0,  999.0,  999.0,    3.7,    5.0,    4.0,    3.4,    2.8,    2.7,    2.5,  999.0,  999.0,  999.0,  999.0,  999.0,  999.0,  999.0,  999.0,  999.0,  999.0,  999.0,  999.0,  999.0,  999.0,  999.0,  999.0,  999.0,  999.0,  999.0,  999.0,    3.7,  999.0,  999.0,  999.0,    5.7,    7.1,    7.4,  999.0,  999.0,  999.0,  999.0,  999.0,  999.0,  999.0,  999.0,    5.4,    6.3,  999.0
2001/12/28 22:20,  999.0,  999.0,  999.0,  999.0,  999.0,  999.0,  999.0,    4.5,    3.2,    2.0,    2.7,  999.0,  999.0,    1.9,    1.9,    0.3,  999.0,  999.0,  999.0,  999.0,  999.0,  999.0,  999.0,  999.0,  999.0,  999.0,  999.0,  999.0,  999.0,  999.0,  999.0,  999.0,  999.0,  999.0,  999.0,    1.3,  999.0,  999.0,    4.8,    7.7,    8.4,  999.0,  999.0,  999.0,  999.0,  999.0,  999.0,  999.0,  999.0,  999.0,  999.0,  999.0
2001/12/28 22:30,  999.0,  999.0,  999.0,  999.0,  999.0,  999.0,  999.0,    2.3,    2.3,  999.0,   -0.5,    0.4,  999.0,    1.8,    1.1,  999.0,  999.0,  999.0,  999.0,  999.0,  999.0,  999.0,  999.0,  999.0,  999.0,  999.0,  999.0,  999.0,  999.0,  999.0,  999.0,  999.0,  999.0,  999.0,  999.0,  999.0,  999.0,  999.0,  999.0,    3.6,  999.0,  999.0,  999.0,  999.0,  999.0,  999.0,  999.0,  999.0,  999.0,  999.0,  999.0,  999.0
2001/12/28 22:40,  999.0,  999.0,  999.0,  999.0,  999.0,  999.0,    1.7,    1.0,    1.5,    3.2,  999.0,   -0.6,  999.0,    1.2,    1.1,  999.0,   -0.3,  999.0,  999.0,  999.0,  999.0,  999.0,  999.0,  999.0,  999.0,  999.0,  999.0,  999.0,  999.0,  999.0,  999.0,  999.0,  999.0,  999.0,  999.0,  999.0,  999.0,  999.0,  999.0,  999.0,  999.0,  999.0,  999.0,  999.0,  999.0,  999.0,  999.0,  999.0,  999.0,  999.0,  999.0,  999.0
2001/12/28 22:50,  999.0,  999.0,  999.0,  999.0,  999.0,  999.0,  999.0,    0.4,    1.1,   -0.6,   -0.0,  999.0,  999.0,    2.0,    3.1,    2.1,    0.8,  999.0,  999.0,  999.0,  999.0,  999.0,  999.0,  999.0,  999.0,  999.0,  999.0,  999.0,  999.0,  999.0,  999.0,  999.0,  999.0,  999.0,  999.0,  999.0,  999.0,  999.0,  999.0,  999.0,  999.0,  999.0,  999.0,  999.0,  999.0,  999.0,  999.0,  999.0,  999.0,  999.0,  999.0,  999.0
2001/12/28 23:00,  999.0,  999.0,  999.0,  999.0,  999.0,  999.0,  999.0,    1.4,    0.9,   -0.7,  999.0,  999.0,  999.0,    1.3,    2.0,    0.2,  999.0,  999.0,  999.0,  999.0,  999.0,  999.0,  999.0,  999.0,  999.0,  999.0,  999.0,  999.0,  999.0,  999.0,  999.0,  999.0,  999.0,  999.0,  999.0,  999.0,  999.0,  999.0,  999.0,  999.0,  999.0,  999.0,  999.0,  999.0,  999.0,  999.0,  999.0,  999.0,  999.0,  999.0,  999.0,  999.0
2001/12/28 23:10,  999.0,  999.0,  999.0,  999.0,  999.0,  999.0,    1.4,    0.8,    2.2,  999.0,   -0.5,  999.0,  999.0,    2.5,    2.1,    0.6,  999.0,  999.0,  999.0,  999.0,  999.0,  999.0,  999.0,  999.0,  999.0,  999.0,  999.0,  999.0,  999.0,  999.0,  999.0,  999.0,  999.0,  999.0,  999.0,  999.0,  999.0,  999.0,  999.0,  999.0,  999.0,  999.0,  999.0,  999.0,  999.0,  999.0,  999.0,  999.0,  999.0,  999.0,  999.0,  999.0
2001/12/28 23:20,  999.0,  999.0,  999.0,  999.0,  999.0,  999.0,  999.0,    0.7,   -0.1,   -0.1,    0.3,  999.0,  999.0,  999.0,    1.6,    1.4,  999.0,  999.0,  999.0,  999.0,  999.0,  999.0,  999.0,  999.0,  999.0,  999.0,  999.0,  999.0,  999.0,  999.0,  999.0,  999.0,  999.0,  999.0,  999.0,  999.0,  999.0,  999.0,  999.0,  999.0,  999.0,  999.0,  999.0,  999.0,  999.0,  999.0,  999.0,  999.0,  999.0,  999.0,  999.0,  999.0
2001/12/28 23:30,  999.0,  999.0,  999.0,  999.0,  999.0,  999.0,    1.5,    0.5,    2.5,    1.4,  999.0,    0.6,  999.0,  999.0,    1.0,    1.4,  999.0,  999.0,  999.0,  999.0,  999.0,  999.0,  999.0,  999.0,  999.0,  999.0,  999.0,  999.0,  999.0,  999.0,  999.0,  999.0,  999.0,  999.0,  999.0,  999.0,  999.0,  999.0,  999.0,  999.0,  999.0,  999.0,  999.0,  999.0,  999.0,  999.0,  999.0,  999.0,  999.0,  999.0,  999.0,  999.0
2001/12/28 23:40,  999.0,  999.0,  999.0,  999.0,  999.0,  999.0,    1.4,    0.3,    2.1,    2.1,    1.7,    2.0,  999.0,  999.0,  999.0,    1.3,  999.0,  999.0,  999.0,  999.0,  999.0,  999.0,  999.0,  999.0,  999.0,  999.0,  999.0,  999.0,  999.0,  999.0,  999.0,  999.0,  999.0,  999.0,  999.0,  999.0,  999.0,  999.0,  999.0,  999.0,  999.0,  999.0,  999.0,  999.0,  999.0,  999.0,  999.0,  999.0,  999.0,  999.0,  999.0,  999.0
2001/12/28 23:50,  999.0,  999.0,  999.0,  999.0,  999.0,  999.0,  999.0,  999.0,    0.6,    0.8,    0.8,   -0.2,    0.9,  999.0,    1.3,    1.9,  999.0,  999.0,  999.0,  999.0,  999.0,  999.0,  999.0,  999.0,  999.0,  999.0,  999.0,  999.0,  999.0,  999.0,  999.0,  999.0,  999.0,  999.0,  999.0,  999.0,  999.0,  999.0,  999.0,  999.0,  999.0,  999.0,  999.0,  999.0,  999.0,  999.0,  999.0,  999.0,  999.0,  999.0,  999.0,  999.0
